www.pogodaiklimat.ru
ПОГОДА в Милтоне
Время
и дата
16:56 21.05
18:56 21.05
20:56 21.05
21:56 21.05
22:56 21.05
23:16 21.05
23:56 21.05
00:56 22.05
01:56 22.05
04:56 22.05
05:56 22.05
07:56 22.05
08:56 22.05
09:30 22.05
09:36 22.05
10:22 22.05
10:38 22.05
13:56 22.05
15:56 22.05
16:10 22.05
16:56 22.05
17:56 22.05
18:56 22.05
19:56 22.05
20:42 22.05
20:56 22.05
21:04 22.05
22:56 22.05
00:56 23.05
01:56 23.05
02:56 23.05
03:34 23.05
03:56 23.05
04:21 23.05
04:56 23.05
05:56 23.05
06:56 23.05
07:56 23.05
08:56 23.05
09:56 23.05
10:56 23.05
11:05 23.05
11:09 23.05
11:28 23.05
11:56 23.05
12:56 23.05
13:56 23.05
14:56 23.05
Ветер
(напр.,м/с)
Видим. Явления Облачность Т
(С)
Тd
(С)
f
(%)
Тe
(С)
Тes
(С)
Комфортность P
(гПа)
Po
(гПа)
Тmin
(С)
Tmax
(С)
R
(мм)
R24
(мм)
S
(см)
Ю 1 16 км ясно +26.7 +20.0 67 +33 +38 очень
душно
1017.8 1012.7
ЮВ 2 16 км 8/8 900 м +24.4 +21.1 82 +31 +31 очень
душно
1018.3 1013.3
Ю 1 16 км ясно +23.3 +21.1 87 +31 +31 очень
душно
1017.1 1012.0
Ю 1 16 км ясно +22.8 +21.1 90 +30 +30 очень
душно
1017.5 1012.3
СВ 1 16 км ясно +22.8 +21.1 90 +30 +30 очень
душно
1017.9 1013.0
В 1 16 км 8/8 600 м +22.2 +21.1 93 +29 +29 очень
душно
1013.0
В 1 16 км 8/8 630 м +22.8 +21.1 90 +30 +30 очень
душно
1017.6 1012.7 +22.2 +25.6
В 2 16 км 8/8 630 м +21.7 +20.6 93 +27 +27 душно 1017.7 1012.7
В 1 16 км ясно +21.7 +21.1 96 +28 +28 душно 1017.0 1012.0
В 1 16 км 2/2 570 м +21.7 +20.6 93 +27 +27 душно 1018.5 1013.3
В 1 16 км ясно +22.2 +21.1 93 +29 +29 очень
душно
1018.9 1013.7 +21.1 +22.8
В 1 16 км ясно +26.1 +22.8 82 +35 +38 очень
душно
1020.2 1015.0
ЮВ 2 16 км ясно +27.2 +22.8 77 +36 +41 очень
душно
1019.6 1014.4
Ю 3
{7}
3 км дождь, дымка 10/8 540 м
[Ac]
+21.7 +20.0 90 +27 +28 душно 1016.0
Ю 4
{6}
800 м сильный дождь, туман 10/8 600 м
[Ac]
+20.6 +19.4 93 +24 +25 комфорт 1016.4
штиль 0 3 км гроза с дождем, дымка 10/0 2100 м
[Ac]
+20.6 +20.0 96 +25 +32 комфорт 1016.4
СЗ 1 5 км дождь, дымка 10/0 2100 м
[Ac]
+20.6 +20.0 96 +26 +31 душно 1016.4
Ю 1 16 км ясно +26.1 +21.1 74 +33 +50 очень
душно
1017.8 1012.7
ЮВ 3 11 км гроза со слабым дождем 10/2 600 м
[Ac Ci]
+21.7 +20.6 93 +27 +29 душно 1018.2 1013.0
ЮВ 2 13 км гроза со слабым дождем 10/2 600 м
[Ac Ci]
+21.7 +20.6 93 +27 +29 душно 1012.7
В 1 16 км слабый дождь 10/8 270 м
[Ci Cb]
+21.7 +21.1 96 +28 +28 душно 1017.4 1012.3
В 1 16 км 10/8 180 м
[Ac]
+21.7 +21.1 96 +28 +28 душно 1016.9 1011.7 +21.1 +27.2
В 2 16 км 8/8 180 м +21.1 +20.6 97 +26 +26 душно 1015.9 1011.0
В 2 16 км 8/2 1500 м
[Ac]
+21.1 +20.6 97 +26 +26 душно 1015.0 1010.0
СВ 2 3 км сильный дождь, дымка 10/10 480 м +20.6 +20.0 96 +25 +25 комфорт 1009.6
В 1 4 км слабый дождь, дымка 10/10 540 м +20.6 +20.0 96 +26 +26 душно 1014.9 1009.6
В 1 16 км 10/10 540 м +20.6 +20.0 96 +25 +25 комфорт 1009.6
В 2 5 км дождь, дымка 10/10 180 м +21.7 +21.1 96 +28 +28 душно 1013.1 1008.0
ЮЗ 2
{5}
16 км 10/10 300 м +22.2 +21.7 97 +29 +29 очень
душно
1013.9 1009.0
нст 1 16 км 10/10 240 м +21.7 +21.1 96 +28 +28 душно 1014.9 1010.0
нст 1 16 км 5/2 660 м
[Ac]
+21.7 +21.1 96 +28 +28 душно 1015.1 1010.0
нст 1 16 км 5/5 150 м +21.1 +21.1 100 +26 +26 душно 1010.3
Ю 1 16 км 8/8 150 м +21.1 +21.1 100 +26 +26 душно 1015.8 1010.7
штиль 0 16 км 8/8 150 м +21.1 +20.6 97 +26 +26 душно 1010.7
штиль 0 16 км 8/5 510 м
[Ci]
+21.1 +20.6 97 +26 +26 душно 1016.0 1011.0
штиль 0 16 км 8/2 540 м
[Ac Ci]
+21.7 +21.1 96 +28 +28 душно 1016.6 1011.3 +21.1 +22.8
штиль 0 16 км 10/5 600 м
[Ac Ci]
+21.7 +21.1 96 +28 +28 душно 1016.8 1011.7
СЗ 1 16 км 8/5 390 м
[Ac Ci]
+23.3 +21.7 91 +32 +33 очень
душно
1017.0 1011.7
СЗ 1 16 км 8/5 330 м
[Ac Ci]
+25.6 +22.8 85 +34 +37 очень
душно
1016.8 1011.7
Ю 1 16 км 8/5 330 м
[Ac Ci]
+26.1 +22.8 82 +35 +38 очень
душно
1017.6 1012.3
ЮЗ 2 16 км гроза 10/8 450 м
[Ac]
+26.1 +22.8 82 +35 +36 очень
душно
1017.6 1012.7
ЮЗ 4
{8}
0 м гроза с дождем 10/10 420 м +22.2 +20.0 87 +28 +28 душно 1013.3
ЮЗ 3
{8}
4 км гроза с дождем 10/10 420 м +21.7 +20.0 90 +27 +27 душно 1013.3
ЮЗ 2
{4}
16 км 10/8 420 м
[Ac Cb]
+21.1 +19.4 90 +26 +27 душно 1014.0
ЮЗ 2
{4}
16 км 10/8 420 м
[Ac Cb]
+21.7 +18.9 84 +27 +28 душно 1019.0 1013.7 +21.1 +26.7
Ю 2 16 км 10/8 600 м
[Ac]
+22.8 +19.4 81 +29 +30 очень
душно
1017.3 1012.0
нст 1 16 км 8/2 750 м
[Ac Ci]
+23.3 +18.3 73 +29 +39 душно 1014.7 1009.6
штиль 0 16 км 10/5 1140 м
[Ac Ci]
+26.7 +19.4 64 +32 +38 очень
душно
1013.2 1008.0
Местоположение метеостанции Whiting Field South: широта 30.6972 долгота -87.0200 высота над уровнем моря 54 м.
В архиве по умолчанию представлена погода в Милтоне за последние 1-2 суток. Обновление информации о фактической погоде в базе происходит ежечасно! Архивные данные за месяц целиком и за предыдущие месяцы Вы можете получить, выбрав интересующий диапазон дат из раскрывающегося списка и нажав кнопку "Ввод!".
Внимание! Архив погоды МЕТАР в базе сайта по станциям, не включенным в климатический монитор, хранится не более 60 дней. Нет смысла пытаться выбрать более раннюю дату.
*Определитесь, кто Вы:
Внимание! Время в таблицах - местное (без учета летнего времени). Для получения всемирного времени необходимо вычесть поправку, которая равна -6 ч.
Смотрите также архив погоды в соседних городах и на ближайших метеорологических станциях:
Партнеры нашего сайта:      
Пояснения к столбцам:
  • Ветер - указаны скорость ветра в м/с - средняя за 10 мин, порывы в срок и между сроками (в фигурных скобках) и направление, откуда дует ветер: С - северный,
  • СВ - северо-восточный, В - восточный, ЮВ - юго-восточный, Ю - южный, ЮЗ - юго-западный, З - западный, СЗ - северо-западный.
  • Видимость - горизонтальная дальность видимости в метрах или километрах. При видимости от 1 до 10 км при отсутствии осадков обычно наблюдается дымка, при ухудшении видимости до 1 км и менее - туман. В сухую погоду видимость может ухудшаться дымом, пылью или мглою.
  • Явления - указаны атмосферные явления, наблюдавшиеся в срок или в последний час перед сроком; фигурными скобками обозначены явления, наблюдавшиеся между сроками (за 1-3 часа до срока); квадратными скобками обозначены град или гололедные отложения с указанием их диаметра в мм.
  • Облачность - указаны через наклонную черту общая и нижняя облачность в баллах и высота нижней границы облаков в метрах; квадратными скобками обозначены формы облаков: Ci - перистые, Cs - перисто-слоистые, Cc - перисто-кучевые, Ac - высококучевые, As - высокослоистые, Sc - слоисто-кучевые, Ns - слоисто-дождевые, Cu - кучевые, Cb - кучево-дождевые. Подробнее классификацию облаков см. в Атласе облаков (PDF).
  • T - Температура воздуха - температура, измеренная на высоте 2 м над землей.
  • Td - Температура точки росы - температура, при понижении до которой содержащийся в воздухе водяной пар достигнет насыщения.
  • f - Относительная влажность воздуха - влажноcть воздуха, измеренная на высоте 2 м над землей.
  • Te - Эффективная температура - температура, которую ощущает одетый по сезону человек в тени. Характеристика душности погоды. При расчете учитывается влияние влажности воздуха и скорости ветра на теплоощущения человека.
  • Tes - Эффективная температура на солнце - температура, которую ощущает человек, с поправкой на солнечный нагрев. Характеристика знойности погоды. Зависит от высоты солнца над горизонтом, облачности и скорости ветра. Ночью, в пасмурную погоду, а также при ветре 12 м/с и более поправка равна нулю.
  • P - Атмосферное давление - приведенное к уровню моря атмосферное давление.
  • Po - Атмосферное давление - измеренное на уровне метеостанции атмосферное давление.
  • Tmin - Минимальная температура - минимум температуры воздуха на высоте 2 м над землей.
  • Tmax - Максимальная температура - максимум температуры воздуха на высоте 2 м над землей.
  • R - Количество осадков - Количество выпавших осадков за период времени, мм. При наведении курсора мыши на число - период времени, за который выпало указанное количество осадков.
  • R24 - Количество осадков - Количество выпавших осадков за 24 часа, мм.
  • S - Снежный покров - Высота снежного покрова, см. При наведении курсора мыши на число - состояние снежного покрова и степень покрытия местности в баллах.